User: anonymous   Login
Location: Ayer Observatory
(42.2600°N, 71.0700°W)
Time: 08:46:20
(UTC-04:00)
Language:

STARS - Orbit

View from above orbital plane
View from above orbital plane
View from above satellite
View from above satellite

Ground track
Ground track

The orbit data is extracted from the following two-line orbital elements,

1 33498U 09002G   19201.89301007 +.00000092 +00000-0 +20027-4 0  9995
2 33498 098.3048 052.1065 0012268 067.7036 292.5473 14.79001228564346
Epoch (UTC): 20 July 2019 21:25:56
Eccentricity: 0.0012268
inclination: 98.3048°
perigee height: 624 km
apogee height: 641 km
right ascension of ascending node: 52.1065°
argument of perigee: 67.7036°
revolutions per day: 14.79001228
mean anomaly at epoch: 292.5473°
orbit number at epoch: 56434

The dashed part of the orbit path shows where the satellite is in the earth's shadow,  

DLR